Location: Newark
(50.5897°N, 2.4589°E)
Time: 21:48:51
(UTC+00:00)

Envisat - Visible Passes

Search period start: 08 December 2019 00:00
Search period end: 18 December 2019 00:00
Orbit: 764 x 766 km, 98.1° (Epoch: 08 December)

Date Brightness Start Highest point End Pass type
(mag) Time Alt. Az. Time Alt. Az. Time Alt. Az.
08 Dec 5.1 05:54:47 10° NNE 05:59:13 29° E 06:03:36 10° SSE visible
08 Dec 3.0 17:13:52 10° SSE 17:18:52 61° ENE 17:23:53 10° N visible
08 Dec 5.4 18:54:24 10° SW 18:58:18 22° W 19:02:14 10° NW visible
09 Dec 6.0 05:19:09 10° NE 05:22:00 15° E 05:24:50 10° ESE visible
09 Dec 3.1 06:56:37 10° NNE 07:01:45 88° WNW 07:06:50 10° SSW visible
09 Dec 3.7 16:37:49 10° SE 16:42:18 32° ENE 16:46:47 10° N visible
09 Dec 4.2 18:16:24 10° S 18:21:13 43° W 18:26:04 10° NNW visible
10 Dec 4.2 06:19:57 10° NNE 06:24:53 47° E 06:29:46 10° S visible
10 Dec 3.0 17:39:14 10° SSE 17:44:20 85° WSW 17:49:27 10° NNW visible
10 Dec 6.0 19:21:41 10° WSW 19:24:09 13° W 19:26:38 10° NW visible
11 Dec 5.5 05:43:43 10° NE 05:47:49 24° E 05:51:54 10° SE visible
11 Dec 3.1 17:02:44 10° SE 17:07:38 50° ENE 17:12:32 10° N visible
11 Dec 5.1 18:42:39 10° SSW 18:46:55 27° W 18:51:12 10° NW visible
12 Dec 6.2 05:08:40 10° ENE 05:10:33 12° E 05:12:26 10° ESE visible
12 Dec 3.3 06:45:21 10° NNE 06:50:28 76° ESE 06:55:33 10° S visible
12 Dec 3.9 16:26:54 10° ESE 16:31:07 27° ENE 16:35:21 10° N visible
12 Dec 3.8 18:04:56 10° S 18:09:53 52° W 18:14:52 10° NNW visible
13 Dec 4.6 06:08:47 10° NNE 06:13:32 38° E 06:18:15 10° SSE visible
13 Dec 2.9 17:27:58 10° SSE 17:33:03 80° ENE 17:38:09 10° NNW visible
13 Dec 5.8 19:09:30 10° SW 19:12:42 17° W 19:15:56 10° NW visible
14 Dec 5.7 05:32:44 10° NE 05:36:25 20° E 05:40:04 10° SE visible
14 Dec 3.4 16:51:40 10° SE 16:56:24 41° ENE 17:01:10 10° N visible
14 Dec 4.7 18:31:00 10° SSW 18:35:32 32° W 18:40:06 10° NNW visible
15 Dec 3.6 06:34:05 10° NNE 06:39:09 62° ESE 06:44:12 10° S visible
15 Dec 4.1 16:16:02 10° ESE 16:19:57 23° ENE 16:23:52 10° N visible
15 Dec 3.4 17:53:31 10° S 17:58:34 64° WSW 18:03:38 10° NNW visible
16 Dec 5.0 05:57:38 10° NNE 06:02:11 31° E 06:06:41 10° SSE visible
16 Dec 2.9 17:16:45 10° SSE 17:21:47 66° ENE 17:26:50 10° N visible
16 Dec 5.5 18:57:33 10° SW 19:01:17 20° W 19:05:03 10° NW visible
17 Dec 6.0 05:21:52 10° NE 05:25:00 16° E 05:28:06 10° SE visible
17 Dec 3.0 06:59:33 10° NNE 07:04:41 82° WNW 07:09:46 10° SSW visible
17 Dec 3.6 16:40:39 10° SE 16:45:12 34° ENE 16:49:46 10° N visible
17 Dec 4.4 18:19:25 10° SSW 18:24:10 39° W 18:28:57 10° NNW visible
